Overview Statistics Trail Chart Weather Telemetry Raw packets
 

This is the latest recevied weather packets stored in our database for station/object K0APR. If no packets are shown the sender has not sent any weather packets the latest 10 day(s).

<< 69 70 71 72 73 74 75 >>
Time Temp. Humidity Pressure Rain* Wind** Luminosity Snow
1788183674 21.11° C 88% 1012.3 hPa 0 mm - 104 W/m² -
1788183373 21.11° C 88% 1012.3 hPa 0 mm - 94 W/m² -
1788183068 21.67° C 88% 1012.3 hPa 0 mm - 78 W/m² -
1788182764 21.67° C 88% 1012 hPa 0 mm - 134 W/m² -
1788182463 21.67° C 89% 1012.3 hPa 0 mm - 111 W/m² -
1788182158 21.67° C 89% 1012 hPa 0 mm - 78 W/m² -
1788181854 21.67° C 89% 1012 hPa 0 mm - 36 W/m² -
1788181550 21.67° C 89% 1012 hPa 0 mm - 58 W/m² -
1788181245 21.67° C 89% 1012 hPa 0 mm - 65 W/m² -
1788180944 22.22° C 90% 1011.5 hPa 0 mm - 59 W/m² -
1788180639 22.22° C 90% 1011.2 hPa 0 mm - 52 W/m² -
1788180336 21.67° C 90% 1011.5 hPa 0 mm - 41 W/m² -
1788180032 21.67° C 91% 1011.2 hPa 0 mm - 41 W/m² -
1788179730 21.67° C 92% 1011.2 hPa 0 mm - 35 W/m² -
1788179425 21.11° C 93% 1010.9 hPa 0 mm - 31 W/m² -
1788179125 21.11° C 93% 1010.9 hPa 0 mm - 27 W/m² -
1788178820 21.11° C 93% 1010.9 hPa 0 mm - 23 W/m² -
1788178515 21.11° C 93% 1010.9 hPa 0 mm - 19 W/m² -
1788178212 21.11° C 94% 1010.9 hPa 0 mm - 14 W/m² -
1788177910 21.11° C 94% 1010.5 hPa 0 mm - 11 W/m² -
1788177606 21.11° C 94% 1010.5 hPa 0 mm - 8 W/m² -
1788177303 21.11° C 93% 1010.5 hPa 0 mm - 5 W/m² -
1788177003 21.11° C 93% 1010.5 hPa 0 mm - 2 W/m² -
1788176701 21.11° C 93% 1010.2 hPa 0 mm - 1 W/m² -
1788176397 21.11° C 93% 1010.2 hPa 0 mm - 0 W/m² -

* Rain latest hour (hover to see other rain measurements)
** Current wind speed in m/s (hover to see current wind gust speed)